Theta_e
311 312 313 313 315 320 324 326 327 328 330 331 331 332 331 331 331 332 333 333 333 333 332 331 325 319 316 314 315 317 321 322 323 323 323 322 322 321 322 319 317 316 316 317 320 324 326 326 327 326 324 323 320 317 318 317 317 320 324 323 319 320 320 320 320 318 317 317 314 312 314 320 320 315 314 314 317 319 319 320 322 324 325 326 328 326 328 334
311 310 312 312 313 317 320 322 325 327 329 331 331 332 331 331 331 331 332 332 333 332 332 329 323 318 316 314 315 317 321 322 322 323 323 322 322 322 323 321 320 320 319 319 322 324 326 326 328 327 326 326 320 318 319 316 316 321 325 324 322 322 319 318 318 316 315 315 314 313 312 316 320 317 315 317 318 318 320 321 322 323 325 326 327 327 329 335
310 310 310 311 311 313 314 316 320 324 327 330 332 331 331 331 331 331 331 332 332 332 331 328 322 318 317 319 319 319 321 322 321 322 321 321 321 321 321 321 321 321 320 321 322 324 327 326 327 327 327 326 321 319 319 316 317 319 321 326 325 322 318 316 315 315 314 313 314 313 310 313 316 315 315 318 319 318 319 320 321 322 324 327 329 329 331 335
310 310 310 310 310 310 312 312 314 321 326 328 330 331 331 331 330 330 330 332 332 331 331 328 324 319 318 320 321 319 320 321 320 320 321 320 320 320 320 321 321 320 320 322 322 323 325 326 326 326 328 329 323 320 318 315 317 317 319 325 322 318 318 315 314 314 312 311 312 312 311 313 313 313 315 317 319 319 319 319 320 321 322 328 329 331 332 335
310 310 309 310 310 310 311 311 313 319 324 327 329 330 331 330 330 329 330 331 331 330 330 328 324 318 316 318 318 319 319 320 320 320 320 319 319 319 320 321 321 320 322 324 322 322 325 325 325 325 328 330 325 323 319 314 314 316 316 317 316 316 316 314 312 312 310 310 311 312 312 313 312 312 315 316 318 319 318 317 319 319 321 329 330 331 333 335
311 311 310 310 310 311 312 312 314 318 323 326 329 330 330 330 329 329 329 330 329 329 328 326 322 317 317 317 318 319 319 322 321 320 319 318 318 318 320 322 321 322 323 323 321 322 325 324 325 326 327 329 327 325 320 312 313 317 315 312 313 314 314 312 311 310 309 310 312 312 312 311 312 313 313 314 318 317 314 314 315 315 321 330 332 332 333 334
312 311 310 310 311 311 312 312 313 317 321 326 329 330 330 330 329 329 329 329 328 328 326 324 320 318 318 318 320 320 320 322 321 320 320 318 318 318 321 322 322 324 322 319 320 323 323 322 326 326 327 329 329 328 321 313 314 318 315 312 311 312 312 311 310 309 308 310 311 310 310 311 313 314 311 312 317 314 314 317 314 314 323 331 331 332 334 335
312 311 310 311 311 311 312 312 312 314 318 324 329 329 329 329 329 329 328 328 327 327 325 322 320 319 318 320 323 321 320 321 320 321 320 319 320 323 322 318 319 321 318 318 320 322 321 323 324 325 328 328 328 329 322 316 317 317 315 313 311 311 313 311 309 309 308 309 308 308 311 313 312 311 310 313 315 312 318 323 319 319 325 329 330 331 334 336
311 310 312 311 311 312 312 313 313 313 317 322 326 328 329 328 329 328 328 328 327 326 323 320 319 317 318 322 323 321 321 320 321 321 321 321 322 326 323 314 314 316 318 319 319 321 321 323 323 323 327 325 326 327 322 322 322 319 316 314 313 314 314 312 311 310 309 309 308 310 313 312 309 308 312 314 313 313 320 326 324 324 326 327 329 331 334 335
310 312 314 314 313 313 313 314 314 316 318 319 322 326 328 328 328 328 328 327 327 326 324 321 319 317 320 323 322 321 321 320 321 322 322 323 323 324 323 318 315 316 319 319 319 321 321 322 322 321 323 323 324 323 323 326 324 321 317 315 315 316 315 313 313 312 310 309 309 312 314 311 308 309 315 314 310 312 319 325 326 325 325 328 329 330 334 334
312 313 315 315 314 313 313 314 314 315 317 317 318 322 326 327 327 328 328 327 327 326 325 322 319 320 323 323 321 322 322 320 322 322 321 323 324 323 323 322 320 319 319 318 319 321 320 321 320 321 324 323 321 319 320 321 319 319 319 318 317 317 317 315 316 315 313 313 310 310 312 311 309 310 315 314 310 312 316 323 325 326 325 328 329 329 332 334
312 311 312 312 313 313 313 313 313 313 315 316 316 318 323 327 327 327 327 327 326 326 324 321 320 322 324 322 321 322 322 320 321 322 321 323 324 323 322 322 321 320 319 318 319 319 319 319 319 322 323 321 320 319 320 316 314 316 318 322 320 317 320 320 319 315 315 316 309 309 314 314 311 311 313 312 311 313 315 320 324 325 326 327 329 329 331 333
310 309 310 309 309 311 310 311 312 311 311 313 315 316 319 325 327 327 327 326 326 325 323 321 321 323 323 322 321 321 322 321 321 322 323 324 324 323 322 322 321 320 319 319 318 317 318 320 320 320 319 321 320 317 317 312 312 315 316 321 322 322 324 320 317 313 315 316 309 312 319 319 315 313 312 312 312 314 314 317 321 323 325 325 328 328 329 332
311 310 310 308 308 309 308 310 311 310 309 310 313 315 316 322 327 327 326 326 325 324 322 321 322 323 322 322 321 321 322 322 322 323 325 325 321 320 320 320 320 319 319 318 316 317 318 319 319 318 317 319 316 313 314 313 314 318 317 321 324 328 326 318 314 314 318 315 308 314 321 322 318 314 312 311 313 314 313 315 317 321 323 323 326 327 328 331
311 310 309 307 308 309 308 309 310 309 309 310 311 313 314 319 325 326 326 325 324 323 322 322 322 322 323 322 320 321 322 323 324 324 324 323 319 317 316 316 316 317 317 316 315 316 318 319 318 318 315 314 314 315 317 316 317 318 322 326 324 326 326 318 313 315 321 314 307 316 322 320 318 316 311 308 311 313 313 314 315 319 321 322 325 326 328 329
308 307 307 306 308 308 307 308 310 310 312 313 312 313 313 317 323 326 325 324 324 323 322 323 323 323 324 324 321 322 323 325 325 324 324 323 320 315 313 314 314 315 316 315 316 316 317 318 316 316 315 314 317 320 320 320 320 318 323 328 323 324 326 322 315 311 316 314 310 315 321 319 314 313 310 306 310 312 313 314 314 315 318 320 323 325 327 328
305 306 306 307 308 307 307 310 311 312 314 313 312 312 313 316 323 326 325 324 324 322 322 323 323 323 324 322 321 323 323 325 325 323 322 324 321 315 313 315 314 314 314 314 316 315 315 314 313 315 316 317 319 322 325 328 326 321 322 325 321 320 322 323 319 311 311 314 314 314 317 320 317 313 311 308 309 311 312 313 313 313 314 316 320 323 325 326
307 307 306 307 308 307 309 311 312 312 312 311 311 312 313 316 323 325 324 324 323 322 322 323 322 325 326 321 322 325 324 324 323 321 320 321 321 316 314 315 314 315 314 314 315 313 314 313 314 318 319 319 320 323 330 331 329 326 323 324 322 318 319 322 321 314 310 313 316 315 315 318 318 314 313 312 310 311 312 312 313 313 313 314 316 319 322 324
309 307 306 307 308 309 310 310 310 310 309 309 310 312 313 316 322 325 324 324 323 323 324 324 323 326 326 321 322 324 323 323 322 321 318 316 316 314 313 314 314 315 315 315 315 313 314 315 317 321 322 321 321 324 328 326 326 326 323 324 324 320 319 319 317 312 310 312 315 316 316 316 316 314 315 314 311 311 312 312 312 312 312 312 313 315 318 321
310 308 307 308 308 308 308 307 308 308 308 310 311 313 315 317 322 325 323 323 324 325 325 325 323 322 322 321 322 323 323 323 322 319 315 312 313 314 314 314 315 316 316 317 316 313 315 319 321 323 323 322 322 324 322 320 322 323 322 323 323 323 321 317 314 310 309 313 315 315 316 316 315 315 315 315 311 310 311 311 312 312 312 312 312 313 315 317
310 309 309 309 307 307 306 306 306 307 308 311 313 316 317 317 321 321 321 324 323 322 324 323 321 320 321 321 322 322 322 322 321 317 314 312 314 315 315 314 315 317 317 317 315 312 315 322 323 322 323 321 320 320 318 318 320 321 322 323 322 323 322 317 313 310 308 311 316 313 312 314 314 313 314 313 311 310 310 311 312 313 313 313 313 313 313 314
310 309 309 310 308 305 306 306 306 306 308 311 314 316 315 314 316 313 317 325 323 320 323 322 319 320 321 322 323 322 322 323 321 317 313 312 315 318 316 315 316 316 315 315 315 315 318 323 323 319 319 318 317 317 318 319 319 321 321 322 324 322 320 318 313 310 308 312 316 311 311 314 313 312 312 312 311 311 310 310 312 312 313 313 312 313 313 313
309 308 308 310 309 306 306 305 305 306 308 311 314 314 313 313 312 310 315 324 325 321 322 322 319 319 321 322 323 323 323 324 323 318 313 313 316 317 316 315 317 316 314 315 317 319 321 322 319 316 315 316 315 316 318 318 318 320 321 322 324 320 321 322 315 310 308 310 312 311 311 315 315 314 313 312 312 311 311 310 311 312 313 313 314 314 313 312
309 309 307 308 309 308 305 303 303 305 308 312 312 312 312 311 311 311 314 320 322 320 321 321 319 320 321 321 323 324 324 323 323 319 314 315 317 316 316 317 317 316 315 316 317 320 320 317 314 313 315 316 315 315 317 319 320 319 320 323 324 319 319 319 313 310 310 309 310 312 317 319 319 319 318 316 313 311 311 310 310 311 311 311 312 313 312 311
308 309 309 308 310 308 304 303 303 304 308 311 311 310 310 311 310 311 315 317 319 319 321 321 319 320 320 320 323 323 324 323 323 319 314 316 317 316 317 317 317 317 317 317 318 320 317 312 312 314 315 316 316 316 317 320 321 319 318 320 321 318 315 314 312 312 315 316 312 313 322 324 318 317 318 316 314 311 311 310 310 311 310 310 310 310 311 311
306 307 309 309 310 308 305 306 304 303 307 310 310 309 309 311 310 311 314 317 320 320 321 322 322 322 320 321 322 321 325 324 320 318 316 317 318 317 319 318 317 318 317 316 318 319 314 310 313 315 315 317 317 316 317 319 321 320 318 316 316 316 314 314 315 317 320 320 312 310 320 324 317 316 316 315 313 312 313 311 311 311 310 310 310 310 311 311
305 305 307 309 309 307 307 308 305 303 307 308 310 310 308 310 310 310 314 318 321 320 321 321 321 322 320 321 321 322 328 323 317 318 316 318 318 317 320 319 318 317 315 316 320 317 311 310 314 315 316 317 318 317 317 317 320 321 317 314 314 314 315 315 316 318 318 316 313 310 314 317 316 317 315 314 315 314 314 313 312 312 311 310 310 311 312 312
305 304 305 308 309 307 307 307 304 305 306 307 310 310 308 309 309 310 314 321 322 319 320 320 317 319 320 321 321 322 323 320 320 320 314 315 318 317 320 319 317 317 314 318 322 316 311 312 315 315 317 317 318 319 316 316 320 318 313 313 313 314 315 315 314 316 314 313 317 314 312 316 318 316 313 312 314 315 315 315 315 314 313 312 311 311 312 312
305 304 306 308 308 307 307 305 304 305 304 305 310 309 307 308 309 311 315 320 320 317 319 319 317 318 320 322 322 320 320 320 322 318 313 315 316 315 319 318 316 317 314 316 320 314 310 312 314 315 318 318 317 316 314 316 318 314 312 312 313 313 314 314 314 314 312 314 319 316 314 318 321 318 315 312 312 315 316 315 316 315 315 315 313 313 313 311
304 304 306 308 308 307 307 306 304 304 303 305 308 307 307 308 311 314 316 319 319 317 318 319 319 320 322 323 321 320 321 319 318 316 315 318 317 316 317 317 318 318 316 315 314 311 308 309 312 314 315 314 312 311 313 316 314 312 312 313 313 313 312 313 312 312 314 318 320 316 314 317 320 319 317 316 313 313 314 314 315 315 315 315 314 313 311 308
304 304 305 307 307 307 307 307 307 305 303 304 307 307 308 309 311 316 318 317 318 317 318 320 321 322 323 323 322 322 322 318 316 317 317 319 319 319 318 317 319 318 318 317 312 309 309 309 311 311 309 310 311 310 310 311 311 312 314 315 316 315 314 316 315 313 319 322 316 312 312 313 318 319 315 315 313 310 312 312 313 314 314 316 314 311 309 309
304 304 305 306 307 307 307 307 307 307 304 304 308 309 309 311 313 316 318 318 318 317 318 320 322 323 323 323 324 324 322 318 317 318 319 321 321 321 321 319 318 318 320 320 314 311 311 311 311 309 308 310 313 313 311 310 311 313 314 316 320 320 320 323 321 318 321 320 311 308 310 312 316 317 314 313 312 311 312 311 312 313 313 314 313 310 310 312
304 304 304 304 305 306 307 307 307 308 306 305 308 308 309 313 314 315 317 317 318 316 316 319 322 323 323 324 324 323 321 320 318 318 320 321 321 322 323 319 316 321 325 321 315 313 314 312 310 309 309 310 313 315 313 312 312 313 315 319 322 322 324 327 323 319 321 317 309 307 311 314 315 315 314 314 314 314 313 312 312 312 311 312 311 311 311 311
304 304 303 303 304 305 306 307 306 307 307 306 307 308 310 314 315 315 315 314 316 317 316 318 322 323 323 324 324 322 322 320 319 320 320 320 322 324 323 320 317 320 323 321 317 317 319 317 312 311 311 310 313 315 315 314 313 313 315 317 319 320 325 327 323 321 321 315 309 308 313 318 317 314 312 311 312 313 311 311 311 310 310 311 310 310 312 312
303 303 303 303 303 303 305 306 306 306 306 305 306 308 311 315 315 315 315 313 314 316 316 318 322 324 324 324 323 321 322 321 320 320 319 320 323 324 323 321 318 319 322 322 321 320 323 320 312 311 311 311 313 313 313 314 313 312 311 313 316 316 317 317 315 315 314 313 312 310 313 316 314 313 311 311 311 310 309 309 308 309 310 310 309 310 314 315
303 303 303 303 303 303 303 304 305 304 304 305 307 308 310 313 313 313 314 313 314 315 316 318 322 324 324 323 323 322 320 321 322 321 319 320 321 323 323 320 318 319 321 323 322 322 326 319 310 310 309 309 312 312 311 315 315 312 311 312 314 313 311 312 310 308 309 315 316 312 313 314 313 314 312 312 313 311 310 310 309 310 310 311 312 313 315 317
302 302 303 303 303 303 302 303 304 305 305 305 307 308 309 310 310 311 314 314 314 315 317 319 321 321 322 322 323 323 321 321 322 321 321 321 321 322 322 320 319 318 320 321 321 321 322 316 309 311 310 308 311 312 311 314 314 312 312 313 312 311 311 311 312 310 311 316 316 312 313 314 314 316 313 310 312 312 312 311 311 311 310 313 316 316 316 317
302 302 303 302 302 303 302 302 304 306 306 306 307 308 309 309 308 310 314 314 315 316 317 319 319 318 319 322 322 322 322 323 322 322 322 322 322 321 320 320 319 318 318 319 320 319 319 315 310 310 310 308 309 312 311 310 311 311 313 314 313 314 314 312 313 314 314 316 316 312 310 311 313 315 313 311 311 312 312 311 312 311 310 312 315 316 317 317
301 301 302 301 302 302 302 302 304 306 307 306 306 307 308 308 308 309 312 313 315 316 317 318 317 315 317 320 321 322 323 324 323 323 322 323 323 320 319 320 320 318 316 316 318 318 317 317 314 309 309 309 308 310 313 311 310 309 311 312 311 313 314 313 312 314 315 316 315 314 311 312 314 313 313 314 312 311 313 313 313 313 312 312 312 315 319 320
301 301 300 300 301 302 302 303 304 305 305 306 306 307 308 308 307 308 310 312 314 316 316 316 315 316 316 316 318 321 323 324 323 324 323 322 322 319 318 319 319 319 315 313 316 317 315 316 315 310 309 310 309 311 314 313 310 309 311 312 311 310 311 312 312 311 313 314 313 315 315 314 314 312 312 314 313 313 315 315 315 315 311 311 312 316 320 319
300 300 300 300 301 302 303 304 304 304 305 306 307 307 308 308 307 308 309 311 313 315 315 315 316 316 315 316 317 320 323 324 322 324 323 321 321 320 319 318 318 318 315 312 316 317 315 315 315 311 309 311 311 311 313 313 312 312 312 312 312 311 311 314 315 310 309 312 312 312 314 316 314 311 310 312 313 313 314 315 316 313 309 309 314 318 317 316
299 299 300 300 301 302 303 303 303 304 305 306 307 307 308 308 308 308 309 310 312 313 314 315 316 314 314 316 317 318 322 324 322 324 323 321 321 320 318 317 317 316 314 315 316 315 314 314 313 311 311 312 311 308 308 312 314 313 313 313 313 312 312 315 317 311 308 309 309 309 312 315 314 310 309 311 312 312 312 312 312 311 309 311 316 318 316 314
299 299 300 301 301 302 302 303 303 304 305 305 305 306 307 308 308 308 308 309 310 311 312 313 315 314 313 315 315 316 320 322 323 323 323 322 320 318 317 317 317 315 314 316 316 314 314 314 313 312 311 311 310 308 308 310 312 312 313 313 312 313 314 312 311 311 311 311 310 311 314 315 312 310 310 311 311 309 308 307 308 310 311 314 319 320 319 317
299 300 300 301 302 302 302 303 303 303 304 304 305 306 306 307 308 308 308 308 309 311 311 311 314 315 315 315 314 316 318 321 323 323 322 322 319 316 317 317 317 316 315 316 316 316 317 316 314 313 313 313 312 311 311 311 310 311 312 311 312 314 313 310 308 309 312 313 313 314 316 315 312 311 310 309 308 307 305 305 306 310 312 315 319 320 319 320
299 300 300 300 301 302 302 302 302 302 303 304 304 305 306 307 307 308 309 308 309 310 311 312 313 315 316 316 315 316 318 320 322 321 320 320 316 314 317 318 316 315 315 317 318 317 318 317 315 316 316 317 317 316 316 314 310 310 311 310 311 313 312 311 311 311 313 315 314 315 316 313 309 310 310 309 308 307 307 307 307 309 312 314 317 320 321 322
299 300 300 300 300 301 302 302 301 302 302 303 304 305 306 307 307 308 309 309 309 309 311 312 314 315 316 316 315 315 316 318 320 320 320 318 314 313 316 317 316 315 317 321 319 317 317 317 316 318 319 319 320 319 318 315 312 311 311 311 311 313 313 313 313 313 313 315 314 315 316 313 310 310 310 310 310 309 309 309 308 310 312 314 317 321 322 322
299 299 299 300 300 301 302 302 301 302 302 303 303 304 305 306 307 308 308 309 310 310 310 311 313 314 315 315 315 315 315 315 317 318 319 317 313 312 314 316 317 317 318 320 318 317 318 317 317 320 320 319 321 321 318 315 313 312 313 312 312 312 313 314 315 314 315 314 314 316 316 315 313 311 311 313 312 310 310 310 309 310 312 314 315 317 318 317
299 299 300 300 300 301 302 302 301 302 302 302 303 304 305 306 307 308 308 309 310 310 310 311 312 312 314 315 316 316 316 315 315 317 317 315 313 313 313 314 316 317 317 316 316 315 316 318 317 318 320 318 317 318 317 315 314 313 312 312 312 312 313 315 315 315 315 315 316 318 318 316 314 311 311 314 312 310 311 311 309 309 310 311 312 313 314 314
298 300 301 301 300 300 301 301 301 302 302 303 303 303 305 305 306 307 308 308 309 309 311 312 311 311 312 314 316 316 317 317 316 316 315 313 313 314 313 313 313 312 313 315 315 314 316 319 317 316 317 316 312 314 316 316 316 314 313 313 312 312 312 314 315 315 315 315 316 318 319 316 314 312 311 312 313 311 310 309 308 309 310 311 312 314 315 313
298 299 300 301 301 300 301 301 302 302 302 302 303 303 304 305 306 306 307 309 309 309 310 311 311 311 311 312 314 316 316 317 318 317 315 313 314 315 314 314 312 311 312 313 314 314 316 319 317 315 316 314 310 311 314 315 316 315 314 313 312 312 313 313 314 314 315 315 314 316 317 316 314 312 311 313 313 310 309 309 310 311 311 312 313 314 314 313
298 298 299 300 301 301 301 302 302 302 302 302 303 303 304 304 306 306 307 308 309 309 310 311 311 312 312 312 313 314 315 316 317 317 315 314 315 316 316 315 313 312 312 313 313 313 314 316 315 315 317 315 309 309 311 312 314 314 313 313 312 312 312 313 313 313 314 315 315 315 315 315 313 312 312 313 312 309 309 311 311 312 313 313 313 315 315 314
298 298 298 299 300 300 300 301 302 302 302 302 302 303 303 304 305 306 306 307 308 308 310 310 310 311 312 313 313 312 314 315 316 317 315 314 314 316 316 315 314 313 312 313 313 313 313 314 313 315 319 316 309 309 312 313 314 314 313 313 313 312 312 312 312 313 313 314 314 314 314 313 312 312 312 312 312 311 311 311 312 313 314 312 312 314 314 313
Wind_Speed
28 30 25 16 17 18 20 29 35 38 43 44 44 43 42 42 42 42 42 39 37 35 35 34 33 33 31 32 34 33 29 22 19 15 11 14 17 17 15 12 11 11 10 10 9 7 6 6 6 5 5 3 2 1 1 1 1 2 3 3 3 3 3 3 3 1 1 3 4 3 5 7 5 5 3 2 4 2 3 4 2 2 4 3 0 1 5 15
27 29 29 24 22 19 14 18 28 35 40 43 45 45 44 44 43 43 42 41 38 35 35 34 34 34 33 33 33 33 25 16 16 17 20 21 19 19 16 11 7 7 9 10 8 6 5 5 6 6 5 3 1 1 1 0 1 2 2 4 4 3 1 1 2 2 0 3 3 3 3 6 3 5 5 5 6 5 6 6 4 5 8 6 3 1 9 18
28 27 31 32 29 26 20 14 17 29 37 42 46 47 46 45 44 44 42 42 40 37 35 35 35 34 35 34 32 31 20 10 11 18 28 28 21 19 16 10 7 8 10 8 8 6 5 7 7 6 4 3 2 0 1 1 1 1 2 6 4 3 2 2 2 2 0 2 1 2 2 4 2 3 5 5 5 7 10 8 6 9 11 9 5 5 12 18
26 27 29 31 29 26 26 23 18 23 33 40 44 45 45 46 45 45 44 42 41 38 37 36 36 35 36 35 31 27 16 5 11 19 29 33 26 21 19 14 10 13 12 9 8 6 6 10 8 5 4 4 2 1 3 1 1 1 2 5 2 3 2 2 2 2 2 1 2 1 2 3 2 2 4 5 6 7 10 9 9 11 10 10 8 9 15 19
24 27 28 26 24 19 19 22 20 21 28 37 45 44 45 47 46 46 45 43 42 39 38 37 36 36 36 34 30 25 15 4 10 20 27 32 30 25 21 15 15 18 14 11 9 8 9 11 9 5 3 4 4 4 5 2 1 3 1 2 4 3 3 2 0 2 2 1 2 1 1 1 3 4 6 8 9 5 2 5 8 9 6 10 12 12 16 19
24 24 24 21 19 16 15 17 16 19 25 33 45 47 47 48 47 47 45 43 43 40 38 38 37 37 35 32 30 26 16 4 4 18 28 30 29 26 21 18 19 18 15 13 12 12 11 9 8 6 4 5 7 7 5 3 1 3 2 0 2 2 3 3 1 1 1 2 2 1 1 0 3 4 5 9 12 2 4 1 3 3 3 10 13 14 16 19
24 22 23 20 19 17 14 14 13 15 21 29 42 48 49 49 48 47 46 45 43 41 39 38 38 37 34 31 28 21 15 5 3 15 27 27 27 25 23 22 23 21 17 15 14 12 10 9 8 6 6 5 6 7 6 4 1 3 4 4 3 1 3 3 1 1 2 3 1 1 2 3 5 3 2 8 14 4 4 2 0 1 6 11 13 14 16 19
25 23 24 22 20 18 16 16 14 14 17 24 37 47 48 48 49 48 47 46 43 42 40 39 39 37 36 32 22 12 12 7 4 15 27 27 27 26 25 26 27 24 20 17 16 12 9 9 8 6 6 3 4 7 6 5 3 4 5 6 3 1 3 2 0 2 2 3 1 1 4 4 4 1 1 9 12 5 3 2 3 4 8 11 12 13 14 16
23 23 25 25 22 20 19 16 13 15 15 16 28 44 50 50 51 50 48 47 45 43 41 41 40 38 37 28 16 10 14 12 5 15 30 31 31 30 28 29 30 26 20 16 16 15 9 9 8 6 4 3 5 7 8 8 4 5 5 5 5 3 2 1 1 2 1 2 2 4 5 2 0 1 5 10 5 3 4 3 4 6 9 10 10 12 14 14
23 24 25 25 25 24 20 15 11 12 13 10 15 31 48 54 52 51 50 48 46 44 42 42 40 40 36 23 14 9 15 20 9 12 31 36 35 33 30 29 29 25 20 17 17 17 10 7 7 4 2 4 5 4 6 7 2 4 7 4 3 2 1 2 2 1 1 2 3 5 4 0 2 1 5 3 2 3 5 4 3 6 8 9 9 10 13 14
23 23 24 24 21 20 19 16 10 8 10 8 8 17 36 51 53 51 52 49 47 45 44 42 42 43 32 18 15 8 14 25 11 10 28 36 36 35 32 31 29 23 19 16 16 16 11 9 10 4 1 5 5 4 4 3 2 4 7 3 3 4 5 5 6 4 2 2 3 4 5 1 3 3 7 0 3 3 6 6 4 7 7 8 9 9 10 12
24 20 20 20 15 14 14 14 10 7 8 7 5 7 20 44 54 50 51 50 48 47 44 45 46 41 25 13 12 6 15 27 15 10 23 34 35 34 32 30 27 22 18 16 14 14 11 14 14 4 2 7 7 4 3 2 2 4 5 4 3 3 7 9 8 4 4 3 4 3 6 6 6 7 8 0 3 2 5 6 5 6 6 5 8 7 8 10
24 16 13 13 10 10 9 9 9 8 8 7 6 3 8 34 54 52 51 51 48 49 47 46 46 36 19 9 9 7 11 22 18 10 20 32 32 29 29 27 24 21 19 17 16 15 14 17 13 3 3 7 5 3 4 5 3 5 3 3 3 3 7 6 4 4 4 3 5 3 7 7 6 8 7 2 3 3 4 6 6 5 5 5 6 7 8 10
24 16 11 9 8 9 9 9 9 10 10 10 12 8 2 20 51 55 50 51 48 48 47 47 44 30 14 6 7 9 9 17 20 16 21 28 25 22 24 24 22 22 21 18 18 17 16 17 12 5 2 1 5 5 5 5 3 5 4 2 4 6 3 3 3 6 7 3 6 6 8 8 5 5 4 3 3 4 6 8 7 6 5 5 6 7 8 10
23 19 16 11 9 9 11 10 9 9 10 11 13 15 7 10 42 55 50 51 49 47 47 45 38 22 9 4 7 13 12 16 21 21 23 26 25 19 20 23 20 20 20 18 18 16 16 16 10 6 2 0 7 8 6 5 3 4 4 4 5 6 2 4 4 7 7 2 7 9 7 7 8 5 2 3 3 5 8 9 6 6 5 6 6 7 8 8
21 20 19 16 12 10 11 11 12 11 7 7 9 14 9 3 33 55 52 50 48 47 43 33 29 19 8 6 9 14 12 13 20 24 26 28 26 20 21 23 17 16 16 14 17 16 14 12 4 2 3 4 8 8 5 4 3 4 6 5 5 7 4 3 4 5 5 2 7 11 7 3 4 3 3 3 4 6 7 9 7 6 6 6 6 6 7 7
20 20 18 16 14 12 14 15 16 16 11 10 6 9 6 1 29 54 50 49 47 47 38 25 26 16 3 6 11 15 12 11 20 26 28 29 28 25 24 19 13 15 15 13 17 13 7 5 1 1 3 5 7 7 6 6 5 5 6 4 3 6 5 3 4 3 4 5 9 11 10 9 6 4 4 4 4 5 6 8 8 7 7 6 6 6 7 7
22 22 20 18 17 16 17 16 16 17 13 11 6 7 5 2 30 50 46 46 40 34 24 16 22 12 4 10 12 16 16 15 22 25 26 27 28 26 19 13 14 17 15 10 9 5 1 1 2 4 5 6 7 7 8 6 7 8 7 5 3 5 6 7 4 4 6 7 9 10 11 14 12 10 8 4 5 5 8 7 6 6 6 6 6 7 8 8
25 24 22 19 18 18 17 15 14 15 12 10 7 7 5 4 25 37 38 41 27 17 13 12 18 8 5 16 13 17 22 24 25 21 22 25 26 24 17 14 15 16 14 7 5 4 3 3 4 7 8 9 11 12 9 3 5 8 8 6 5 6 7 7 4 3 3 5 9 12 11 13 13 12 13 6 6 6 9 7 6 6 6 6 6 7 7 9
27 27 24 21 18 16 15 13 13 13 12 14 12 9 5 4 11 13 17 26 16 10 14 19 19 3 7 15 16 23 26 24 19 14 21 27 26 22 14 12 11 8 11 11 9 5 3 6 8 9 11 13 15 14 6 4 3 6 7 6 6 7 6 6 5 3 2 4 8 10 10 13 12 12 14 8 4 5 9 9 9 8 8 7 7 8 8 10
28 30 26 23 21 15 13 12 11 11 10 14 13 7 2 2 4 1 4 15 9 1 7 18 13 3 10 20 22 26 20 11 10 12 23 28 25 20 8 9 12 6 7 11 10 4 3 8 10 10 11 13 13 9 5 5 5 6 7 7 7 8 5 4 4 3 2 4 6 4 6 12 11 11 12 9 6 7 9 11 11 10 9 8 8 9 8 8
25 28 24 24 24 17 15 15 11 9 8 11 8 4 2 1 4 6 3 11 8 3 8 20 10 5 14 23 28 30 17 7 9 11 22 24 19 15 8 9 12 8 6 9 8 6 7 9 10 9 7 8 8 8 7 6 6 6 6 6 6 6 3 2 3 2 2 3 3 1 5 11 11 11 11 12 10 9 10 11 11 11 10 9 9 9 8 7
21 23 22 23 24 20 18 16 11 7 6 7 7 6 6 5 5 7 5 7 7 1 10 18 11 12 18 20 30 32 17 11 12 14 23 23 15 11 10 10 10 9 9 10 9 9 8 8 10 10 7 10 9 9 11 7 6 6 6 6 6 5 5 4 4 5 2 2 3 2 6 10 11 11 12 13 11 9 9 11 10 9 10 10 9 7 7 8
20 21 21 23 23 22 20 14 10 7 6 11 14 12 11 11 8 6 4 4 4 2 8 12 9 14 17 16 28 27 13 10 12 16 23 20 15 11 11 12 11 9 9 12 12 10 5 5 11 11 9 13 11 10 12 7 6 6 7 9 6 7 7 1 3 5 1 2 2 4 8 9 10 13 14 11 9 8 8 8 9 8 8 10 9 7 7 9
20 19 21 23 22 24 22 15 11 9 7 11 16 15 13 11 11 10 6 2 2 0 6 9 4 10 16 16 22 17 10 7 6 13 19 16 17 13 10 11 9 11 15 16 14 8 4 5 12 13 11 13 12 11 13 10 7 6 9 11 9 8 7 2 4 4 4 5 2 2 7 6 3 9 12 7 5 8 7 7 9 8 7 8 8 9 9 9
21 18 20 22 23 28 21 11 12 13 7 5 12 18 13 10 11 9 7 2 3 2 7 10 6 14 18 12 14 12 11 7 2 12 17 12 13 9 8 8 2 10 17 13 8 3 4 7 11 14 13 14 12 10 12 11 7 5 6 9 7 6 7 6 6 5 4 3 1 0 6 5 3 7 10 7 7 10 8 8 9 8 6 7 7 8 8 8
20 19 20 18 24 30 16 8 16 15 6 4 10 16 13 14 17 8 5 0 4 4 7 6 5 15 17 12 17 14 11 9 6 12 13 8 10 7 9 10 3 9 13 8 4 2 7 11 10 13 13 12 11 9 11 13 9 3 3 8 8 7 8 7 6 5 3 2 1 2 3 5 7 7 6 7 11 13 12 12 9 8 9 8 8 9 8 9
18 19 19 18 23 24 16 19 21 12 8 9 13 14 10 16 18 8 3 3 4 5 5 3 4 11 11 13 17 8 8 15 11 9 5 4 7 4 10 14 10 14 13 9 7 2 7 13 14 15 12 9 10 8 12 14 7 1 4 7 7 6 6 5 3 3 1 2 5 5 3 5 8 4 1 3 9 13 14 14 13 11 11 10 9 10 10 10
18 19 18 19 20 16 18 27 23 13 13 14 13 16 16 17 14 5 0 4 2 3 2 4 7 10 12 12 9 5 10 11 6 5 4 4 2 2 7 12 13 17 10 4 5 2 3 7 12 15 11 8 6 5 10 14 5 3 6 8 7 5 5 3 1 1 0 4 7 6 8 6 7 5 4 3 6 11 12 12 13 12 11 10 9 9 9 7
17 18 17 18 16 14 18 21 20 21 17 14 17 24 23 15 8 3 4 3 2 2 2 4 7 11 17 14 6 9 14 6 5 9 5 3 3 4 3 6 7 12 7 2 5 3 2 2 3 6 5 5 7 6 3 7 6 8 8 8 7 5 3 2 0 1 3 6 5 6 10 7 5 4 6 4 4 6 8 8 10 10 10 9 7 6 6 4
17 17 16 17 15 16 15 9 17 26 20 17 23 25 17 6 2 4 5 1 2 3 4 6 10 14 19 17 9 12 14 8 11 14 6 5 3 0 6 7 3 6 7 3 4 3 5 5 3 0 0 5 10 6 4 4 7 8 7 7 6 4 2 2 1 1 5 5 1 1 4 7 8 4 3 5 4 5 7 8 9 11 12 8 4 3 4 4
17 16 15 14 14 15 11 9 21 29 24 23 21 14 6 2 2 4 4 3 2 4 4 6 13 17 19 18 13 13 12 10 16 16 12 12 9 7 10 9 8 8 8 8 6 4 4 3 2 2 1 5 10 8 4 3 6 6 7 8 7 4 3 4 3 4 6 4 2 3 1 6 10 7 6 8 9 10 10 9 9 11 10 5 3 3 4 4
17 15 14 12 13 12 9 13 24 26 27 26 15 4 2 3 4 2 3 4 1 3 3 5 14 20 21 17 12 13 10 9 16 16 14 14 12 10 4 6 14 8 5 10 8 6 4 2 2 4 3 5 9 10 7 6 7 9 10 9 7 5 5 6 5 3 5 2 2 2 0 4 7 6 10 15 15 13 10 9 9 9 10 7 3 4 5 6
17 15 13 11 11 10 8 13 21 24 28 21 8 3 5 5 4 2 3 3 1 4 5 6 14 20 21 15 13 15 10 9 16 15 14 13 11 10 3 7 17 8 5 10 5 6 8 2 6 9 5 7 12 9 8 10 9 8 7 5 3 3 4 5 4 3 2 1 2 2 1 5 3 1 3 9 10 9 8 7 6 7 8 6 4 5 6 7
15 15 13 10 9 8 7 10 17 25 23 10 2 4 7 6 4 2 4 3 1 5 6 7 13 18 17 11 13 15 5 7 18 14 12 14 12 14 10 11 19 12 9 10 4 7 10 4 2 2 2 10 13 5 6 12 9 3 1 2 2 1 1 1 0 1 1 1 2 4 3 5 2 5 7 7 7 8 9 7 6 8 7 4 4 6 7 7
14 13 11 9 7 7 7 7 14 25 19 6 2 3 3 2 2 2 4 4 4 7 9 10 11 14 13 8 12 14 1 4 18 13 8 13 12 15 15 10 13 14 11 10 5 6 9 4 1 2 2 7 7 5 7 7 6 4 3 5 2 2 2 2 1 2 1 3 3 4 5 5 3 8 11 11 11 10 10 9 8 9 8 5 5 7 7 6
11 9 7 7 6 8 8 5 10 18 13 4 3 3 0 1 1 1 3 4 4 5 9 10 7 6 8 6 10 15 9 7 13 10 7 10 9 12 14 10 12 17 15 11 5 3 6 4 1 1 5 3 1 5 5 1 2 6 6 7 4 2 2 1 2 2 2 5 2 3 7 6 3 4 3 5 10 12 12 12 8 6 6 6 6 6 6 5
9 5 3 4 8 9 9 8 9 10 6 4 7 5 0 1 2 2 0 3 5 4 5 6 2 0 4 6 9 15 16 12 11 10 9 9 7 11 15 11 14 20 15 8 4 3 6 6 2 1 3 3 1 4 5 1 1 2 4 7 5 2 4 4 3 3 4 4 3 3 5 5 7 7 3 4 8 10 10 9 7 6 7 7 7 6 6 5
9 4 1 3 9 10 10 10 8 4 3 5 8 7 2 2 4 3 3 2 3 4 5 3 1 1 2 5 9 15 18 15 14 12 10 8 5 12 18 11 12 20 14 5 5 7 6 4 3 0 0 4 3 5 8 7 2 1 3 6 2 2 3 4 2 1 2 3 3 2 2 4 7 8 7 10 11 10 10 8 7 7 7 7 6 5 5 4
6 2 1 3 11 14 13 11 5 2 3 5 6 4 2 1 3 4 2 2 1 2 4 3 2 2 3 3 5 10 13 15 16 12 9 9 6 10 17 12 11 18 11 2 3 7 4 2 5 4 0 4 6 5 8 11 8 5 6 8 5 1 0 1 2 1 1 3 3 2 4 5 3 5 9 14 14 11 9 9 6 3 3 5 6 5 4 3
3 2 0 5 17 20 15 9 3 3 2 3 4 2 1 2 3 4 4 1 0 1 0 2 3 3 3 3 3 6 7 11 14 10 7 11 8 6 15 16 14 17 12 5 6 8 3 3 8 7 5 6 4 1 1 5 9 9 8 9 9 6 4 4 5 2 0 1 2 1 6 6 2 5 8 10 11 10 8 8 5 2 4 6 5 4 3 3
3 3 2 9 22 23 13 5 3 3 2 3 4 3 2 3 3 4 5 3 2 1 2 1 2 3 2 3 3 5 5 7 12 10 6 12 12 7 12 17 15 15 12 6 4 3 1 4 7 6 5 3 2 3 3 2 3 4 5 7 9 8 8 7 4 3 3 1 1 1 4 5 1 3 6 7 6 4 2 4 4 4 5 5 3 3 3 3
4 4 3 12 24 21 9 4 5 4 3 2 3 4 3 2 2 4 5 5 3 3 1 2 2 4 3 3 3 5 5 5 12 14 9 11 11 6 13 20 17 15 11 5 6 4 2 5 7 5 3 2 3 2 2 3 1 4 7 7 8 9 7 2 0 2 4 4 3 2 5 4 1 1 2 4 2 1 2 3 4 4 4 3 3 2 2 3
5 4 2 12 24 18 6 5 7 7 7 4 4 6 5 3 4 5 6 7 6 5 4 4 3 4 4 4 4 6 6 4 9 13 8 7 6 5 16 23 19 16 12 7 8 6 3 5 7 7 5 2 1 2 2 3 5 7 6 5 7 8 7 4 1 1 3 7 8 5 7 4 1 2 2 5 3 2 4 4 4 5 4 3 2 2 2 2
6 3 1 8 17 12 4 4 7 7 9 8 7 9 7 4 5 6 7 8 7 6 5 4 4 3 2 5 4 7 7 4 4 7 4 3 1 2 15 24 20 16 13 7 8 5 3 6 8 9 9 9 9 8 7 7 7 4 5 8 9 11 11 6 3 3 6 7 10 10 7 2 3 1 5 6 4 5 6 5 5 6 6 4 4 3 2 1
5 3 3 4 5 5 4 3 6 6 7 9 7 8 10 7 5 6 8 7 6 7 5 3 3 3 3 7 7 5 9 4 1 3 4 5 2 1 13 23 21 19 15 12 13 7 3 6 9 9 11 11 7 4 3 8 8 7 9 12 11 12 13 8 4 6 8 5 8 16 10 1 1 6 7 7 6 7 7 5 5 6 6 5 5 4 2 1
3 3 6 5 2 5 6 4 6 6 7 9 6 6 11 11 6 5 7 6 6 8 7 4 4 4 5 9 7 5 9 6 1 4 6 5 2 1 8 17 19 20 16 12 12 8 3 7 13 14 15 8 1 3 8 12 11 11 12 13 12 13 14 12 10 15 9 5 9 15 10 8 8 10 9 9 7 7 7 6 6 6 5 4 3 3 4 3
3 1 5 6 3 6 8 8 10 11 10 11 7 6 12 14 11 8 7 7 5 7 7 5 8 10 9 9 8 6 9 6 2 5 6 4 4 4 6 9 11 14 14 9 7 6 5 9 12 12 11 3 3 4 11 14 14 16 16 17 17 17 18 18 19 21 13 10 13 7 10 15 15 13 13 10 7 8 7 4 3 3 3 3 2 4 5 4
3 0 2 4 4 7 9 11 15 15 14 13 8 7 11 14 15 12 7 6 6 8 9 8 11 15 15 13 10 8 10 9 5 5 6 5 7 8 8 6 5 6 10 9 6 5 5 8 12 12 7 2 5 1 7 11 13 15 18 19 19 19 20 20 22 24 19 17 16 4 4 13 13 13 14 9 6 5 2 1 1 2 3 4 4 6 6 5
4 2 2 3 4 6 9 11 13 13 13 12 9 9 10 13 16 14 8 8 8 8 11 13 14 15 17 16 14 13 13 14 13 11 11 10 10 9 9 10 9 10 12 10 7 7 7 8 13 13 7 2 2 1 2 5 10 15 17 16 17 18 19 20 23 20 15 17 19 11 9 15 10 11 10 6 3 1 1 3 3 3 5 6 6 7 7 6
5 2 2 3 5 7 9 10 11 11 12 11 10 10 11 14 17 14 10 12 13 10 13 19 19 14 13 16 20 20 18 17 17 17 18 17 15 12 8 7 12 14 12 10 8 9 8 5 9 11 9 6 4 4 4 4 5 8 11 14 20 21 19 18 16 12 13 19 22 16 15 15 7 12 10 6 4 3 6 7 5 6 7 7 7 8 8 8
6 2 0 2 5 8 9 9 11 12 10 10 12 12 13 16 18 16 11 10 14 15 13 16 19 13 10 17 25 26 21 17 12 10 14 14 12 10 6 7 14 16 14 12 9 8 8 5 6 10 10 5 4 7 8 8 5 5 12 20 25 21 13 9 10 14 21 22 18 15 14 8 7 12 11 9 7 8 10 8 7 8 7 6 7 8 8 9
Wind_Direction
208 211 213 216 226 224 201 201 209 208 203 199 199 197 197 197 195 195 195 195 196 195 196 198 197 193 190 188 188 189 189 191 195 199 203 184 162 150 148 144 145 149 149 152 156 143 115 96 101 127 137 109 12 25 103 30 19 247 224 204 210 188 178 180 180 215 9 74 99 139 195 212 181 167 171 168 208 190 168 197 171 183 229 244 27 38 144 153
203 208 213 216 224 228 206 196 205 209 207 202 201 199 197 196 195 196 195 195 196 196 196 196 196 192 190 188 186 186 183 186 199 211 209 186 164 161 157 153 158 161 157 153 154 149 137 119 116 145 159 154 82 4 206 13 310 242 215 221 216 178 135 111 153 183 315 47 95 130 190 223 210 162 167 203 201 184 208 204 187 218 215 209 232 206 159 164
207 212 218 220 226 237 237 234 219 210 209 205 199 196 196 197 196 196 195 195 195 196 196 195 195 191 189 186 181 183 177 176 206 219 215 200 184 182 187 205 208 184 177 163 152 159 155 139 136 145 154 167 134 65 215 71 282 230 227 235 209 156 120 114 167 153 119 348 7 120 140 212 222 146 168 217 211 197 221 213 189 219 215 189 170 166 169 173
208 210 216 220 226 238 243 250 250 221 210 208 200 193 195 196 195 196 195 195 194 196 196 194 194 191 188 184 181 179 165 170 220 222 217 206 199 206 218 226 201 179 177 166 161 167 151 142 140 136 155 170 130 173 182 124 259 135 233 244 128 135 157 144 179 108 100 299 318 102 146 198 170 164 194 209 218 219 228 220 212 224 210 171 157 167 173 178
206 207 211 217 222 230 233 238 249 233 215 211 204 197 196 196 196 195 194 193 194 194 194 193 192 189 187 184 182 172 153 176 215 213 217 208 206 217 222 214 192 181 178 177 171 159 147 143 138 131 165 170 151 183 171 114 125 141 267 330 82 146 156 101 120 87 109 188 260 208 196 164 128 187 210 210 227 238 234 221 226 237 203 162 163 166 172 183
205 202 199 198 205 206 209 220 234 232 222 211 203 199 197 197 195 193 192 192 192 193 192 190 188 186 183 180 176 168 167 189 179 199 211 208 205 210 208 201 192 182 180 181 162 150 145 146 159 155 166 173 174 184 147 116 201 187 208 84 124 172 131 102 76 123 155 213 227 246 338 357 179 212 206 220 238 237 54 315 243 254 173 152 157 162 174 186
196 189 182 178 186 191 199 218 227 233 229 212 201 197 194 195 195 192 191 190 190 191 190 188 185 182 176 171 170 174 193 207 110 187 198 200 198 196 195 191 184 173 172 170 151 153 149 155 181 162 159 169 183 185 142 133 209 206 178 153 154 150 129 122 64 149 224 241 224 355 310 238 228 235 140 227 239 200 84 4 336 178 145 148 157 169 182 187
186 184 178 177 186 192 201 216 226 238 236 213 201 199 196 193 194 192 189 190 189 189 188 185 182 178 172 166 167 185 210 200 130 173 181 188 187 182 182 180 175 168 168 166 156 161 154 160 172 160 173 167 175 177 153 153 183 208 168 143 161 169 149 139 136 169 222 242 181 230 245 238 244 299 209 241 240 194 133 88 121 150 148 161 174 179 186 190
187 187 177 178 186 191 197 201 211 229 233 215 201 202 202 197 194 191 189 189 188 187 186 183 180 176 172 169 169 189 203 195 173 173 174 178 180 178 176 174 172 168 169 171 171 171 164 173 169 170 177 130 172 171 169 190 196 192 161 147 170 166 170 188 200 164 211 233 174 221 240 227 155 12 250 248 241 152 142 125 134 154 160 176 184 184 189 193
192 186 171 166 173 181 187 184 191 210 216 213 195 197 198 194 191 190 188 187 188 187 184 183 179 175 173 171 178 190 191 189 187 178 177 177 180 180 180 179 175 171 170 174 182 179 173 174 153 155 128 118 176 162 173 200 174 162 160 155 195 200 238 202 218 222 236 218 191 238 269 128 121 222 241 237 85 139 160 154 167 180 181 185 187 190 194 198
176 167 152 140 148 166 176 176 177 191 199 203 193 190 190 189 189 188 187 186 186 185 182 180 175 173 173 173 186 186 176 182 178 165 178 181 182 182 184 185 181 175 172 172 184 184 177 158 140 143 153 138 154 138 181 208 51 137 155 169 246 275 271 240 247 248 228 220 189 233 283 224 141 214 244 81 78 189 184 174 190 203 199 190 190 191 196 204
158 146 139 132 133 145 158 170 172 179 194 207 210 190 187 189 188 187 186 185 184 184 180 175 173 171 168 177 195 175 169 182 178 155 176 183 183 184 188 187 184 181 176 174 180 184 176 159 154 146 144 152 145 142 175 167 91 126 153 191 196 269 260 241 244 224 212 220 164 187 278 242 187 211 237 81 80 191 198 193 192 211 215 198 196 194 199 205
164 150 139 138 140 150 155 167 187 206 207 229 241 207 182 188 188 187 185 183 183 182 178 173 172 170 166 181 189 159 166 184 184 163 173 182 181 182 187 188 190 192 188 185 177 174 167 159 160 128 125 160 144 134 130 115 145 145 156 224 175 230 244 226 216 178 202 208 152 180 268 244 197 216 226 136 124 175 208 214 202 209 216 210 206 203 206 201
176 168 153 145 148 175 182 167 194 223 225 244 249 232 211 180 184 185 183 182 181 180 177 172 169 168 172 173 166 173 171 177 181 172 170 175 169 168 178 183 189 193 191 186 173 167 160 152 148 109 64 182 127 141 128 112 182 159 148 232 202 226 220 147 163 182 202 193 153 193 252 252 235 227 200 141 170 196 228 228 211 204 207 217 215 213 215 205
184 185 186 183 164 171 179 168 181 210 229 245 252 244 260 178 179 182 182 179 179 178 172 169 168 163 171 176 173 187 175 167 176 176 173 168 158 153 164 169 172 180 181 178 171 164 153 146 137 114 90 241 145 149 133 127 178 166 181 210 200 222 202 126 160 193 212 189 167 201 240 253 256 253 125 120 180 202 239 239 220 213 208 216 218 219 224 215
183 188 193 193 182 178 175 167 163 162 179 201 235 239 244 197 177 179 180 176 174 173 166 165 171 166 170 168 162 177 169 168 177 176 175 171 163 151 149 153 148 156 160 157 158 151 142 137 116 94 123 159 167 154 138 145 166 189 222 218 185 210 215 150 151 196 228 189 187 217 246 257 260 250 129 145 192 189 234 247 240 235 227 222 219 219 224 222
171 171 171 169 169 170 167 162 155 153 158 165 193 222 218 247 175 174 175 172 167 165 162 164 170 169 177 145 153 172 168 169 176 169 169 175 170 152 141 141 129 129 126 127 141 138 127 121 122 204 144 171 177 160 164 186 189 193 219 225 197 212 221 195 162 161 198 207 210 218 237 247 252 241 183 161 183 193 228 246 246 242 239 229 222 223 223 225
165 160 154 149 151 154 161 162 153 152 161 167 175 190 195 164 165 167 165 160 154 154 158 159 162 169 215 181 170 163 157 159 166 162 162 171 169 154 141 136 133 131 120 118 137 133 100 96 190 178 168 183 176 178 190 196 197 190 193 203 209 211 219 220 194 145 176 208 222 215 226 241 247 255 253 187 165 222 245 247 250 247 246 238 230 231 226 225
165 161 153 145 148 151 154 157 152 151 151 153 155 159 171 145 156 163 158 150 148 156 163 164 169 183 191 180 165 142 153 159 156 157 156 159 157 146 135 134 139 143 141 146 161 164 142 130 193 187 179 184 181 195 199 164 190 191 188 201 203 201 215 216 179 126 180 206 221 224 232 241 242 248 256 231 168 229 256 251 249 246 247 241 234 237 230 229
167 163 155 148 149 147 146 145 141 146 142 139 139 136 153 163 152 165 162 155 165 177 166 170 172 131 97 148 143 135 148 154 147 153 156 154 147 135 131 138 139 154 160 159 157 160 166 167 194 197 185 185 186 193 175 90 140 178 186 208 213 215 219 200 171 127 174 230 227 227 240 249 247 243 251 248 181 222 252 252 247 240 237 236 233 237 234 233
168 166 159 154 151 145 148 147 133 135 141 140 141 138 163 237 157 151 172 164 177 344 144 162 159 70 118 142 141 132 131 136 131 146 156 155 147 138 150 162 151 171 166 145 133 123 191 195 197 195 183 180 181 175 134 115 149 172 190 205 214 224 229 190 175 130 130 240 235 213 250 256 252 250 254 256 236 234 244 250 253 247 237 233 234 238 238 239
162 164 159 153 149 148 153 154 142 123 126 137 133 113 101 53 87 50 44 161 178 337 140 154 143 80 128 141 144 134 115 111 127 153 162 159 158 156 174 180 164 163 138 126 126 140 192 209 189 171 154 146 152 159 163 164 167 180 188 201 216 214 224 226 186 136 127 245 251 156 269 266 258 255 254 252 249 239 229 237 250 252 246 238 233 236 237 247
152 154 154 149 145 151 157 160 160 132 109 115 95 85 111 115 91 46 29 142 161 215 159 158 141 129 136 145 153 145 133 146 153 173 174 166 167 163 158 170 161 144 144 155 162 163 185 199 165 142 135 144 150 169 176 171 178 196 187 198 219 179 191 237 183 150 128 267 291 312 280 272 263 254 249 243 241 236 225 229 239 244 249 246 242 242 238 244
147 149 153 151 143 146 153 154 156 149 116 98 92 95 106 107 107 88 56 111 139 187 172 154 128 145 150 149 161 158 142 151 160 171 178 170 155 147 153 162 150 143 171 177 174 170 158 137 136 138 161 166 160 171 177 180 192 208 206 208 217 182 190 268 117 143 190 228 253 293 280 269 252 244 247 237 221 230 229 227 238 234 235 249 258 256 241 237
146 143 146 151 144 142 147 141 137 150 140 111 104 107 112 112 106 96 73 59 126 239 185 158 120 159 153 146 164 161 123 132 156 161 175 174 152 145 158 162 154 167 179 174 174 178 144 123 138 146 169 171 164 175 183 189 194 207 219 221 225 194 178 130 128 162 234 226 182 285 268 261 226 236 249 246 220 236 225 215 238 236 218 230 247 250 239 234
151 147 143 149 149 144 142 135 142 153 155 145 122 110 108 131 132 105 66 55 168 195 186 167 163 168 161 153 156 145 136 154 143 149 164 174 158 148 153 158 168 174 172 167 172 187 141 152 154 154 168 172 172 186 184 185 197 211 210 208 211 183 160 159 176 194 237 245 104 217 254 264 285 252 244 241 244 247 238 227 236 241 234 220 224 238 234 229
156 156 148 152 153 146 140 137 147 152 159 192 144 119 102 125 145 135 57 86 194 167 165 158 174 174 168 162 152 147 154 144 118 157 169 173 168 163 158 164 171 165 162 152 173 188 138 154 163 156 160 170 184 193 183 186 200 202 147 161 170 168 164 167 188 215 265 320 267 199 245 274 276 267 243 231 246 250 246 244 237 232 242 235 225 232 231 229
153 159 153 155 156 149 148 147 143 152 181 177 150 142 127 121 136 139 76 189 179 129 154 148 157 164 152 156 159 148 131 131 135 168 176 156 164 178 175 175 167 156 158 163 178 157 132 161 170 159 160 183 194 182 172 183 196 85 103 133 149 152 151 155 190 219 346 318 247 187 159 256 257 246 182 206 238 249 247 246 242 230 229 229 229 230 232 233
148 155 152 155 157 148 147 150 151 163 177 177 158 148 142 121 116 111 222 213 148 90 155 141 146 150 140 154 164 128 127 134 132 139 141 135 96 353 177 171 155 147 154 176 160 127 142 178 170 161 173 190 172 132 163 181 178 98 115 104 100 106 106 122 198 230 233 260 250 191 174 241 269 231 213 186 219 245 247 244 242 234 225 220 221 228 234 240
139 149 148 152 151 140 142 148 157 161 166 177 155 138 136 124 106 141 207 211 119 112 173 146 154 154 151 154 153 146 144 130 113 125 133 131 58 352 98 100 118 144 150 59 80 99 84 73 148 167 187 161 112 75 127 167 136 126 133 113 106 106 91 115 116 359 264 253 243 197 185 219 274 230 214 220 212 239 248 246 246 242 236 226 214 224 237 243
128 137 144 151 149 143 144 146 155 157 161 165 147 135 135 120 94 182 189 155 93 165 178 151 151 153 158 158 150 156 146 126 141 139 138 143 116 213 132 99 78 142 158 131 89 92 105 124 164 168 29 118 113 97 55 100 135 139 143 143 135 117 125 184 159 218 247 244 205 154 178 208 238 222 213 246 233 235 244 245 250 247 244 231 194 207 231 229
120 127 135 145 152 152 149 156 159 156 158 163 152 144 147 123 187 204 174 142 137 184 185 157 154 158 166 164 157 156 142 141 159 153 155 162 160 174 166 163 161 152 175 173 141 120 116 143 160 66 238 173 139 133 101 112 159 160 154 156 150 128 155 205 205 209 239 232 101 39 106 215 244 248 250 256 241 235 239 240 248 254 254 241 174 203 233 239
117 123 124 126 143 152 146 157 163 157 156 163 161 151 162 159 186 205 157 161 128 145 171 172 163 161 166 169 158 150 138 150 168 162 160 162 163 173 178 174 171 167 181 164 137 127 124 332 238 161 190 209 173 160 156 162 173 172 169 171 164 150 174 203 195 216 257 237 125 70 104 247 267 260 240 242 241 242 244 241 241 249 260 263 254 255 255 255
122 126 124 121 133 142 135 149 161 155 151 157 155 144 176 180 167 112 141 188 48 111 146 172 166 164 170 173 160 153 145 159 168 162 157 158 166 176 164 175 181 175 131 153 151 155 158 201 208 177 160 183 186 180 155 149 163 178 179 185 187 169 192 202 189 205 233 94 118 143 210 238 244 27 249 244 255 265 265 258 252 255 259 265 281 276 261 255
127 126 125 130 139 145 130 135 154 152 145 144 143 164 181 177 159 148 160 175 144 133 152 178 170 167 173 174 165 163 148 163 165 158 161 168 173 177 170 180 187 176 145 159 174 174 176 192 182 149 149 171 173 162 127 138 154 180 171 201 231 199 169 163 155 188 111 50 183 186 237 253 257 315 289 260 258 259 254 249 247 255 252 234 243 252 251 253
126 122 124 134 148 160 149 131 147 150 143 135 179 185 199 169 142 179 158 147 163 151 155 181 184 173 172 167 168 171 130 152 163 156 168 176 178 181 176 177 185 181 170 162 150 175 184 180 72 58 126 171 165 138 146 157 156 149 181 202 186 43 71 130 106 59 77 254 222 180 246 268 283 281 262 245 247 249 251 247 231 238 243 229 232 235 239 249
116 114 125 137 147 158 164 147 145 151 146 143 200 200 148 27 113 152 137 132 152 151 155 175 189 174 169 162 168 167 144 141 163 158 163 177 186 186 179 175 182 188 186 167 153 193 168 128 11 151 139 159 328 124 143 271 138 153 186 181 136 36 312 201 169 132 186 247 247 192 243 259 257 257 229 218 238 243 254 258 239 224 232 239 242 232 232 241
108 104 117 153 159 154 159 158 154 160 154 163 214 228 107 106 177 177 328 114 131 150 165 173 185 53 168 164 169 167 156 154 169 163 161 179 191 185 181 179 186 193 191 172 165 174 146 119 44 301 134 118 27 142 154 262 293 192 186 158 149 217 212 189 190 173 186 235 255 226 250 260 232 229 222 197 215 220 231 243 234 219 219 230 244 243 242 245
106 97 49 174 167 157 153 153 151 165 162 173 210 225 197 177 188 202 313 26 113 169 184 177 94 12 200 171 165 171 168 166 168 163 168 184 180 181 184 178 182 190 187 176 183 164 147 140 133 147 79 127 154 192 189 184 167 358 169 164 195 289 195 183 180 184 197 211 246 257 254 245 219 212 217 214 210 211 218 231 236 232 224 224 237 245 244 245
102 109 333 172 165 159 147 138 141 180 179 185 205 208 163 161 192 205 261 357 67 184 196 194 139 132 196 190 174 184 176 166 168 169 175 179 158 170 186 182 175 181 174 110 174 158 147 176 141 127 168 171 180 211 198 177 162 169 180 179 190 186 158 229 185 186 236 197 223 267 261 250 212 183 207 215 219 223 234 248 245 225 224 228 233 239 236 238
112 136 260 166 161 156 140 124 161 208 196 192 197 194 158 157 169 186 201 195 69 344 315 195 171 148 172 180 204 214 184 161 171 179 173 175 174 177 188 185 170 167 164 151 173 173 170 159 138 137 176 188 183 329 306 171 173 180 185 186 187 174 164 193 194 182 299 233 205 268 277 270 193 170 202 214 227 232 238 252 244 190 220 233 231 231 233 240
128 148 179 171 162 154 137 128 187 199 224 207 193 198 197 183 163 172 182 184 212 279 355 318 159 140 188 209 215 220 198 166 172 183 186 186 194 197 178 172 158 158 167 154 151 171 80 110 122 131 167 169 78 27 356 318 201 194 212 200 187 188 193 200 207 171 155 200 65 64 285 288 75 163 197 206 229 241 249 261 253 232 230 235 241 239 235 244
136 130 130 166 166 154 137 165 180 192 230 221 211 222 219 202 168 165 175 186 198 182 203 281 172 152 210 238 217 213 211 187 179 185 193 191 193 172 156 162 156 159 172 151 142 166 125 122 113 97 106 68 46 72 49 18 29 218 229 207 183 195 194 169 58 148 168 185 158 183 255 262 37 59 226 239 269 337 340 293 276 270 262 252 256 254 240 239
138 115 88 170 172 165 153 172 173 195 210 193 207 220 222 230 208 183 172 182 192 182 189 230 197 175 195 190 204 218 207 201 197 194 189 184 182 140 158 168 162 166 186 180 165 178 168 148 137 123 130 135 145 179 185 200 209 217 207 168 174 173 128 98 112 131 219 200 172 203 248 227 109 41 261 259 287 309 279 273 275 275 278 282 275 262 252 251
139 129 77 174 177 181 200 187 172 190 196 186 198 207 205 222 221 206 195 190 194 191 195 211 202 210 203 167 193 229 216 210 203 194 169 137 171 140 166 170 167 176 188 151 134 156 153 165 166 150 156 176 186 193 199 187 186 197 152 148 174 167 147 165 191 182 233 200 171 209 231 123 80 249 241 247 262 273 259 240 247 255 256 274 277 259 249 224
149 149 149 158 182 203 227 207 180 186 189 186 197 205 203 215 226 216 213 205 192 195 215 227 183 212 230 187 184 223 227 229 92 173 165 138 152 244 173 171 174 184 180 141 140 152 131 179 191 187 189 190 183 181 123 113 136 172 171 163 173 176 172 172 169 210 222 170 192 224 225 89 131 198 222 238 227 248 256 231 241 250 240 246 250 248 255 235
170 168 169 163 166 198 209 209 194 192 186 183 185 186 195 209 217 205 209 213 193 190 213 232 189 200 223 196 183 198 215 223 42 181 179 144 104 44 166 175 180 179 171 154 157 152 119 189 197 203 208 205 117 121 123 123 152 173 167 167 172 175 179 179 202 220 198 143 232 231 210 232 227 185 207 233 212 229 248 230 233 243 240 239 241 252 255 246
187 171 184 180 166 182 191 193 197 200 191 187 189 180 189 200 205 197 197 212 212 190 195 212 207 215 225 208 196 193 192 202 229 185 169 135 113 104 145 184 192 176 164 166 181 164 159 195 196 197 204 187 44 153 149 147 171 176 170 176 175 174 182 190 212 222 195 192 239 210 162 220 224 186 201 223 208 218 230 220 229 250 259 251 243 256 251 243
193 222 187 185 182 184 185 185 192 199 196 192 195 194 191 195 201 205 197 195 215 206 196 203 204 210 221 223 219 207 184 182 198 190 176 164 151 141 150 176 220 202 176 176 196 191 188 194 188 189 192 82 39 187 170 158 170 179 182 182 176 179 188 195 215 222 206 215 244 222 166 242 232 190 201 213 212 224 239 337 274 236 244 227 215 237 242 237
184 192 161 180 205 193 189 189 191 198 200 196 199 205 202 197 200 208 204 191 200 196 193 209 213 206 212 218 224 227 207 191 188 182 175 171 166 169 173 173 182 189 185 183 188 202 211 190 172 179 194 185 61 21 197 161 166 182 190 184 177 186 197 206 220 220 207 229 249 246 257 267 235 180 195 207 186 188 287 265 253 233 234 217 207 227 235 234
187 217 157 181 206 193 189 191 190 200 205 200 203 204 204 206 202 203 208 206 208 201 191 204 214 210 207 212 219 228 223 209 200 186 176 178 181 183 184 173 169 171 179 189 185 193 210 185 153 170 193 204 177 132 121 112 130 174 188 188 189 195 201 210 218 209 199 224 237 233 247 260 199 153 176 193 160 179 225 229 227 226 225 210 209 225 230 233
194 257 135 170 206 197 194 196 194 203 207 203 207 206 207 211 205 200 207 213 218 223 212 205 208 206 206 213 219 223 222 222 225 196 178 185 186 180 177 166 169 174 176 180 183 188 190 170 155 179 191 197 162 141 131 112 109 193 207 200 196 196 196 204 218 217 213 218 221 217 228 234 137 141 171 184 185 206 218 216 219 230 227 208 213 224 230 235